N0YUV Weather Reports


time (UTC)temp
C
wind
direction
speed
KPH
gust
KPH
rain 1hr
cm
rain 24hr
cm
rain mn
cm
humidity
%
barometer
mb
20260507083021 6 360 0.0 0.0 0.00 0.00 0.00 70 1014.1
20260507081518 6 360 0.0 0.0 0.00 0.00 0.00 69 1014.2
20260507080019 6 360 0.0 0.0 0.00 0.00 0.00 67 1014.4
20260507074514 6 360 0.0 0.0 0.00 0.00 0.00 65 1014.6
20260507073011 6 360 0.0 0.0 0.00 0.00 0.00 64 1014.9
20260507071513 7 360 0.0 0.0 0.00 0.00 0.00 64 1015.1
20260507070014 7 360 0.0 0.0 0.00 0.00 0.00 64 1015.2
20260507064510 7 360 0.0 0.0 0.00 0.00 0.00 61 1015.4
20260507063007 7 360 0.0 0.0 0.00 0.00 0.00 59 1015.5
20260507061502 6 360 0.0 0.0 0.00 0.00 0.00 57 1015.6
20260507060000 6 360 0.0 0.0 0.00 0.00 0.00 56 1015.8
20260507054559 6 360 0.0 0.0 0.00 0.00 0.00 54 1016.0
20260507054501 6 360 0.0 0.0 0.00 0.00 0.00 54 1015.9
20260507053125 6 360 0.0 0.0 0.00 0.00 0.00 52 1016.0
20260507051555 7 360 0.0 0.0 0.00 0.00 0.00 50 1016.0
20260507050051 7 360 0.0 0.0 0.00 0.00 0.00 49 1016.2
20260507044601 7 360 0.0 0.0 0.00 0.00 0.00 48 1016.1
20260507043051 8 360 0.0 0.0 0.00 0.00 0.00 46 1016.2
20260507041550 8 360 0.0 0.0 0.00 0.00 0.00 43 1016.5
20260507040048 8 360 0.0 0.0 0.00 0.00 0.00 42 1016.5
20260507034547 8 360 0.0 0.0 0.00 0.00 0.00 41 1016.7
20260507033059 8 360 0.0 0.0 0.00 0.00 0.00 42 1016.9
20260507031556 8 360 0.0 0.0 0.00 0.00 0.00 40 1016.9
20260507024604 11 360 0.0 0.0 0.00 0.00 0.00 40 1016.9
20260507023043 11 360 0.0 0.0 0.00 0.00 0.00 36 1016.8
20260507021551 11 360 0.0 0.0 0.00 0.00 0.00 36 1016.7
20260507020054 12 360 0.0 0.0 0.00 0.00 0.00 35 1016.7
20260507014551 12 360 0.0 0.0 0.00 0.00 0.00 34 1016.6
20260507013042 13 360 0.0 0.0 0.00 0.00 0.00 33 1016.7
20260507011546 13 360 0.0 0.0 0.00 0.00 0.00 33 1016.6
20260507010044 13 360 0.0 0.0 0.00 0.00 0.00 33 1016.6
20260507004538 13 360 0.0 0.0 0.00 0.00 0.00 32 1016.6
20260507003037 14 360 0.0 0.0 0.00 0.00 0.00 32 1016.7
20260507001537 14 360 0.0 0.0 0.00 0.00 0.00 32 1016.9
20260507000036 14 360 0.0 0.0 0.00 0.00 0.00 31 1017.0
20260506234550 14 360 0.0 0.0 0.00 0.00 0.00 31 1017.1
20260506233044 15 360 0.0 0.0 0.00 0.00 0.00 32 1017.3
20260506231535 15 360 0.0 0.0 0.00 0.00 0.00 32 1017.3
20260506230034 15 360 0.0 0.0 0.00 0.00 0.00 32 1017.5
20260506224535 15 360 0.0 0.0 0.00 0.00 0.00 31 1017.6
20260506223034 15 94 0.0 0.0 0.00 0.00 0.00 31 1017.6
20260506221533 15 93 0.0 0.0 0.00 0.00 0.00 30 1017.7
20260506220032 15 94 0.0 0.0 0.00 0.00 0.00 29 1017.8
20260506214532 16 94 0.0 0.0 0.00 0.00 0.00 30 1017.9
20260506213032 16 94 0.0 0.0 0.00 0.00 0.00 30 1018.0
20260506211529 16 93 0.0 0.0 0.00 0.00 0.00 29 1018.3
20260506210031 16 93 0.0 0.0 0.00 0.00 0.00 33 1018.5
20260506204522 15 93 0.0 0.0 0.00 0.00 0.00 33 1018.8
20260506203032 15 92 0.0 0.0 0.00 0.00 0.00 32 1019.0
20260506201520 15 92 0.0 0.0 0.00 0.00 0.00 33 1019.2
20260506200017 14 92 0.0 0.0 0.00 0.00 0.00 33 1019.4
20260506194518 15 360 0.0 0.0 0.00 0.00 0.00 32 1019.5
20260506193016 14 360 0.0 0.0 0.00 0.00 0.00 34 1019.5
20260506191517 14 360 0.0 0.0 0.00 0.00 0.00 33 1019.6
20260506190114 13 360 0.0 0.0 0.00 0.00 0.00 33 1019.8
20260506184514 14 360 0.0 0.0 0.00 0.00 0.00 35 1019.9
20260506183016 13 360 0.0 0.0 0.00 0.00 0.00 37 1020.0
20260506181513 13 360 0.0 0.0 0.00 0.00 0.00 36 1020.1
20260506180014 14 360 0.0 0.0 0.00 0.00 0.00 34 1020.4
20260506174510 14 360 0.0 0.0 0.00 0.00 0.00 37 1020.6
20260506173016 13 360 0.0 0.0 0.00 0.00 0.00 40 1020.7
20260506171505 13 360 0.0 0.0 0.00 0.00 0.00 39 1020.8
20260506170004 12 360 0.0 0.0 0.00 0.00 0.00 39 1021.0
20260506164502 13 360 0.0 0.0 0.00 0.00 0.00 40 1020.9
20260506163107 12 360 0.0 0.0 0.00 0.00 0.00 40 1021.0
20260506161639 12 360 0.0 0.0 0.00 0.00 0.00 41 1021.1
20260506160103 12 360 0.0 0.0 0.00 0.00 0.00 39 1020.9
20260506154555 12 360 0.0 0.0 0.00 0.00 0.00 43 1021.0
20260506153056 11 360 0.0 0.0 0.00 0.00 0.00 43 1021.2
20260506151549 11 360 0.0 0.0 0.00 0.00 0.00 46 1021.1
20260506150044 10 360 0.0 0.0 0.00 0.00 0.00 47 1021.2
20260506144542 10 94 0.0 0.0 0.00 0.00 0.00 48 1021.2
20260506143037 8 94 0.0 0.0 0.00 0.00 0.00 55 1021.2
20260506141532 7 360 0.0 0.0 0.00 0.00 0.00 58 1021.2
20260506140027 6 360 0.0 0.0 0.00 0.00 0.00 64 1021.1
20260506134522 5 360 0.0 0.0 0.00 0.00 0.00 68 1021.0
20260506133020 3 360 0.0 0.0 0.00 0.00 0.00 70 1020.8
20260506131528 3 360 0.0 0.0 0.00 0.00 0.00 71 1020.6
20260506130018 2 360 0.0 0.0 0.00 0.00 0.00 71 1020.6
20260506124515 2 360 0.0 0.0 0.00 0.00 0.00 71 1020.5
20260506123013 1 360 0.0 0.0 0.00 0.00 0.00 70 1020.4
20260506121512 1 360 0.0 0.0 0.00 0.00 0.00 70 1020.3
20260506120009 1 360 0.0 0.0 0.00 0.00 0.00 68 1020.0
20260506114504 1 360 0.0 0.0 0.00 0.00 0.00 68 1019.5
20260506113005 2 360 0.0 0.0 0.00 0.00 0.00 68 1019.1
20260506111559 2 360 0.0 0.0 0.00 0.00 0.00 67 1019.1
20260506104558 2 360 0.0 0.0 0.00 0.00 0.00 66 1019.0
20260506103058 2 360 0.0 0.0 0.00 0.00 0.00 64 1019.0
20260506101559 2 360 0.0 0.0 0.00 0.00 0.00 64 1018.7
20260506100105 3 360 0.0 0.0 0.00 0.00 0.00 63 1018.6
20260506094550 3 360 0.0 0.0 0.00 0.00 0.00 62 1018.4
20260506093048 3 360 0.0 0.0 0.00 0.00 0.00 62 1018.4
20260506091543 3 360 0.0 0.0 0.00 0.00 0.00 62 1018.4
20260506090042 3 360 0.0 0.0 0.00 0.00 0.00 61 1018.3
20260506084559 4 360 0.0 0.0 0.00 0.00 0.00 61 1018.2